Weather History for KMFV - January, 2013

Change the Weather History Date:

Friday, January 18, 2013

  Actual Average (KWAL) Record (KWAL)
Temperature  
Mean Temperature 32 °F 36 °F  
Max Temperature 39 °F 45 °F 68 °F (1990)
Min Temperature 26 °F 28 °F 3 °F (2003)
Degree Days  
Heating Degree Days 32    
Month to date heating degree days  
Since 1 July heating degree days  
Cooling Degree Days 0    
Month to date cooling degree days  
Year to date cooling degree days  
Moisture  
Dew Point 26 °F    
Average Humidity 70    
Maximum Humidity 100    
Minimum Humidity 45    
Precipitation  
Precipitation 0.07 in 0.10 in 1.05 in (2004)
Month to date precipitation 1.78  
Year to date precipitation 1.78  
Sea Level Pressure  
Sea Level Pressure 30.37 in    
Wind  
Wind Speed 8 mph (NNW)    
Max Wind Speed 21 mph    
Max Gust Speed 29 mph    
Visibility 9 miles    
Events Snow    
T = Trace of Precipitation, MM = Missing Value Source: NWS Daily Summary

Daily Weather History Graph

Daily Weather History Graph

Search for Another Location

Airport or City:

Trip Planner

Search our weather history database for the weather conditions in past years. The results will help you decide how hot, cold, wet, or windy it might be!

Date:

Astronomy

Jan. 18, 2013 Rise Set
Actual Time 7:15 AM EST 5:11 PM EST
Civil Twilight 6:47 AM EST 5:40 PM EST
Nautical Twilight 6:15 AM EST 6:12 PM EST
Astronomical Twilight 5:43 AM EST 6:43 PM EST
Moon 11:02 AM EST (1/18) No Moon Set
Length of Visible Light 10h 52m
Length of Day
9h 56m
Waxing Crescent, 47% of the Moon is Illuminated
Jan 18
Waxing Crescent
Jan 18
First Quarter
Jan 26
Full
Feb 3
Last Quarter
Feb 10
New

Hourly Weather History & Observations

Time (EST) Temp. Windchill Dew Point Humidity Pressure Visibility Wind Dir Wind Speed Gust Speed Precip Events Conditions
12:19 AM 33.8 °F 29.6 °F 32.0 °F 93% 30.07 in 0.8 mi NNW 4.6 mph - 0.03 in Snow Snow
12:36 AM 33.8 °F 27.7 °F 32.0 °F 93% 30.03 in 1.2 mi North 6.9 mph - 0.04 in Snow Snow
12:56 AM 33.8 °F 29.6 °F 32.0 °F 93% 30.06 in 2.0 mi NNW 4.6 mph - N/A Snow Light Snow
1:16 AM 33.8 °F 28.6 °F 33.8 °F 100% 30.08 in 2.5 mi NNW 5.8 mph - 0.05 in Snow Light Snow
1:36 AM 35.6 °F 29.9 °F 33.8 °F 93% 30.09 in 4.0 mi NNW 6.9 mph - 0.07 in Snow Light Snow
1:56 AM 35.6 °F 28.6 °F 33.8 °F 93% 30.08 in 4.0 mi North 9.2 mph - N/A Snow Light Snow
2:16 AM 35.6 °F 31.7 °F 33.8 °F 93% 30.10 in 4.0 mi North 4.6 mph - N/A   Light Drizzle
2:36 AM 35.6 °F 31.7 °F 33.8 °F 93% 30.10 in 4.0 mi NNW 4.6 mph - N/A   Overcast
2:56 AM 35.6 °F 30.7 °F 33.8 °F 93% 30.11 in 5.0 mi NNW 5.8 mph - N/A   Mostly Cloudy
3:16 AM 37.4 °F 32.1 °F 33.8 °F 87% 30.11 in 5.0 mi NNW 6.9 mph - N/A   Scattered Clouds
3:56 AM 37.4 °F 30.3 °F 35.6 °F 93% 30.13 in 10.0 mi WNW 10.4 mph - N/A   Scattered Clouds
4:17 AM 37.4 °F 30.8 °F 35.6 °F 93% 30.14 in 10.0 mi NW 9.2 mph - N/A   Scattered Clouds
4:36 AM 39.2 °F 33.6 °F 33.8 °F 81% 30.15 in 10.0 mi NW 8.1 mph 17.3 mph N/A   Clear
4:56 AM 39.2 °F 31.6 °F 32.0 °F 75% 30.16 in 10.0 mi NNW 12.7 mph 17.3 mph N/A   Clear
5:16 AM 39.2 °F 31.2 °F 32.0 °F 75% 30.17 in 10.0 mi NNW 13.8 mph 19.6 mph N/A   Clear
5:36 AM 39.2 °F 31.2 °F 30.2 °F 70% 30.18 in 10.0 mi NW 13.8 mph 20.7 mph N/A   Clear
5:58 AM 39.2 °F 32.5 °F 28.4 °F 65% 30.20 in 10.0 mi NNW 10.4 mph 18.4 mph N/A   Clear
6:17 AM 39.2 °F 31.6 °F 28.4 °F 65% 30.22 in 10.0 mi NW 12.7 mph 20.7 mph N/A   Scattered Clouds
6:36 AM 39.2 °F 33.6 °F 28.4 °F 65% 30.24 in 10.0 mi NW 8.1 mph - N/A   Clear
6:55 AM 39.2 °F 32.5 °F 28.4 °F 65% 30.25 in 10.0 mi NW 10.4 mph 19.6 mph N/A   Clear
7:16 AM 39.2 °F 34.2 °F 28.4 °F 65% 30.27 in 10.0 mi NW 6.9 mph - N/A   Clear
7:36 AM 39.2 °F 35.0 °F 28.4 °F 65% 30.29 in 10.0 mi NNW 5.8 mph - N/A   Clear
7:56 AM 39.2 °F 33.6 °F 28.4 °F 65% 30.30 in 10.0 mi NNW 8.1 mph - N/A   Clear
8:16 AM 39.2 °F 29.8 °F 26.6 °F 61% 30.32 in 10.0 mi NNW 18.4 mph 27.6 mph N/A   Scattered Clouds
8:37 AM 39.2 °F 31.2 °F 26.6 °F 61% 30.34 in 10.0 mi NNW 13.8 mph 23.0 mph N/A   Scattered Clouds
8:56 AM 39.2 °F 31.6 °F 26.6 °F 61% 30.36 in 10.0 mi NNW 12.7 mph 19.6 mph N/A   Mostly Cloudy
9:16 AM 39.2 °F 31.2 °F 26.6 °F 61% 30.38 in 10.0 mi North 13.8 mph 20.7 mph N/A   Mostly Cloudy
9:36 AM 39.2 °F 29.3 °F 26.6 °F 61% 30.40 in 10.0 mi North 20.7 mph 26.5 mph N/A   Scattered Clouds
9:56 AM 39.2 °F 30.2 °F 23.0 °F 52% 30.42 in 10.0 mi North 17.3 mph 28.8 mph N/A   Clear
10:16 AM 39.2 °F 30.8 °F 24.8 °F 56% 30.43 in 10.0 mi North 15.0 mph 25.3 mph N/A   Clear
10:56 AM 39.2 °F 31.2 °F 23.0 °F 52% 30.44 in 10.0 mi North 13.8 mph 26.5 mph N/A   Scattered Clouds
11:16 AM 39.2 °F 29.3 °F 23.0 °F 52% 30.44 in 10.0 mi NNW 20.7 mph 25.3 mph N/A   Clear
11:36 AM 39.2 °F 31.6 °F 21.2 °F 49% 30.45 in 10.0 mi North 12.7 mph 21.9 mph N/A   Clear
11:56 AM 39.2 °F 31.2 °F 21.2 °F 49% 30.44 in 10.0 mi NW 13.8 mph 21.9 mph N/A   Clear
12:16 PM 39.2 °F 32.0 °F 21.2 °F 49% 30.44 in 10.0 mi NW 11.5 mph 19.6 mph N/A   Clear
12:36 PM 39.2 °F 32.5 °F 23.0 °F 52% 30.44 in 10.0 mi NNW 10.4 mph - N/A   Scattered Clouds
12:58 PM 39.2 °F 32.0 °F 21.2 °F 49% 30.44 in 10.0 mi NNW 11.5 mph 18.4 mph N/A   Scattered Clouds
1:16 PM 39.2 °F 32.5 °F 23.0 °F 52% 30.44 in 10.0 mi North 10.4 mph 17.3 mph N/A   Clear
1:36 PM 39.2 °F 32.0 °F 21.2 °F 49% 30.44 in 10.0 mi NNW 11.5 mph 18.4 mph N/A   Clear
1:56 PM 39.2 °F 31.6 °F 21.2 °F 49% 30.45 in 10.0 mi NNW 12.7 mph 19.6 mph N/A   Clear
2:16 PM 39.2 °F 32.5 °F 19.4 °F 45% 30.46 in 10.0 mi North 10.4 mph - N/A   Clear
2:36 PM 39.2 °F 33.6 °F 21.2 °F 49% 30.46 in 10.0 mi North 8.1 mph - N/A   Clear
2:56 PM 39.2 °F 32.0 °F 19.4 °F 45% 30.47 in 10.0 mi NW 11.5 mph - N/A   Clear
3:16 PM 39.2 °F 32.0 °F 19.4 °F 45% 30.49 in 10.0 mi North 11.5 mph - N/A   Clear
3:36 PM 39.2 °F 32.5 °F 19.4 °F 45% 30.49 in 10.0 mi NW 10.4 mph 17.3 mph N/A   Clear
3:56 PM 39.2 °F 33.6 °F 19.4 °F 45% 30.49 in 10.0 mi NNW 8.1 mph 11.5 mph N/A   Clear
4:16 PM 39.2 °F 33.6 °F 19.4 °F 45% 30.50 in 10.0 mi NNW 8.1 mph - N/A   Clear
4:36 PM 37.4 °F 32.1 °F 17.6 °F 45% 30.50 in 10.0 mi NNW 6.9 mph - N/A   Clear
4:56 PM 37.4 °F 32.8 °F 19.4 °F 48% 30.51 in 10.0 mi NNW 5.8 mph - N/A   Clear
5:16 PM 35.6 °F - 19.4 °F 52% 30.51 in 10.0 mi Calm Calm - N/A   Clear
5:36 PM 33.8 °F 30.8 °F 19.4 °F 56% 30.52 in 10.0 mi North 3.5 mph - N/A   Clear
5:56 PM 33.8 °F - 21.2 °F 60% 30.53 in 10.0 mi Calm Calm - N/A   Clear
6:16 PM 30.2 °F - 24.8 °F 80% 30.53 in 10.0 mi Calm Calm - N/A   Clear
6:36 PM 30.2 °F - 24.8 °F 80% 30.54 in 10.0 mi Calm Calm - N/A   Clear
6:56 PM 30.2 °F - 24.8 °F 80% 30.54 in 10.0 mi Calm Calm - N/A   Clear
7:16 PM 30.2 °F - 24.8 °F 80% 30.55 in 10.0 mi Calm Calm - N/A   Clear
7:36 PM 30.2 °F - 24.8 °F 80% 30.54 in 10.0 mi Calm Calm - N/A   Clear
7:56 PM 28.4 °F - 24.8 °F 86% 30.54 in 10.0 mi Calm Calm - N/A   Clear
8:16 PM 28.4 °F 24.6 °F 24.8 °F 86% 30.53 in 10.0 mi SE 3.5 mph - N/A   Clear
8:56 PM 28.4 °F 24.6 °F 24.8 °F 86% 30.53 in 10.0 mi SE 3.5 mph - N/A   Clear
9:18 PM 28.4 °F 24.6 °F 24.8 °F 86% 30.54 in 10.0 mi SSE 3.5 mph - N/A   Clear
9:56 PM 28.4 °F - 24.8 °F 86% 30.53 in 10.0 mi Calm Calm - N/A   Clear
10:16 PM 28.4 °F 24.6 °F 24.8 °F 86% 30.53 in 10.0 mi South 3.5 mph - N/A   Clear
10:37 PM 28.4 °F - 24.8 °F 86% 30.53 in 10.0 mi Calm Calm - N/A   Clear
10:58 PM 28.4 °F 24.6 °F 24.8 °F 86% 30.52 in 10.0 mi SSW 3.5 mph - N/A   Clear
11:16 PM 26.6 °F 21.2 °F 24.8 °F 93% 30.52 in 10.0 mi South 4.6 mph - N/A   Clear
11:36 PM 26.6 °F 21.2 °F 24.8 °F 93% 30.51 in 10.0 mi South 4.6 mph - N/A   Clear
11:56 PM 26.6 °F 21.2 °F 24.8 °F 93% 30.51 in 10.0 mi South 4.6 mph - N/A   Clear